Weather History for San Jose, Costa Rica

Change the Weather History Date:

Tuesday, May 1, 2012

  Actual Average Record
Temperature  
Mean Temperature 76 °F -  
Max Temperature 86 °F 81 °F 87 °F (2001)
Min Temperature 65 °F 65 °F 35 °F (2003)
Cooling Degree Days 10    
Growing Degree Days 26 (Base 50)    
Moisture  
Dew Point 65 °F    
Average Humidity 79    
Maximum Humidity 100    
Minimum Humidity 43    
Precipitation  
Precipitation 0.01 in 0.35 in - ()
Sea Level Pressure  
Sea Level Pressure 29.93 in    
Wind  
Wind Speed 5 mph ()    
Max Wind Speed 14 mph    
Max Gust Speed -    
Visibility 6.7 miles    
Events Fog , Rain , Thunderstorm    
Averages and records for this station are not official NWS values.
T = Trace of Precipitation, MM = Missing Value Source: Averaged Metar Reports

Daily Weather History Graph

Daily Weather History Graph

Search for Another Location

Airport:

Trip Planner

Search our weather history database for the weather conditions in past years. The results will help you decide how hot, cold, wet, or windy it might be!

Date:

Astronomy

May. 01, 2012 Rise Set
Actual Time 5:19 AM CST 5:48 PM CST
Civil Twilight 4:57 AM CST 6:10 PM CST
Nautical Twilight 4:31 AM CST 6:35 PM CST
Astronomical Twilight 4:06 AM CST 7:01 PM CST
Moon 1:40 PM CST (5/1) 1:19 AM CST (5/1)
Length of Visible Light 13h 12m
Length of Day
12h 29m
Waxing Gibbous, 74% of the Moon is Illuminated
May 1
Waxing Gibbous
May 5
Full
May 12
Last Quarter
May 20
New
May 28
First Quarter

Hourly Weather History & Observations

Time (CST) Temp. Heat Index Dew Point Humidity Pressure Visibility Wind Dir Wind Speed Gust Speed Precip Events Conditions
12:00 AM 69 °F - 64 °F 77% 29.79 in 12 mi ENE 4.6 mph - -   Scattered Clouds
12:00 AM 68.0 °F - 64.4 °F 88% 29.97 in 6.2 mi ENE 4.6 mph - N/A   Mostly Cloudy
1:00 AM 69.8 °F - 60.8 °F 73% 29.95 in - ENE 5.8 mph - N/A   Clear
2:00 AM 68.0 °F - 60.8 °F 78% 29.94 in - East 3.5 mph - N/A   Clear
3:00 AM 68 °F - 63 °F 78% 29.79 in 12 mi ESE 4.6 mph - -  
3:00 AM 68.0 °F - 62.6 °F 83% 29.93 in - ESE 4.6 mph - N/A   Clear
4:00 AM 68.0 °F - 62.6 °F 83% 29.95 in - Calm Calm - N/A   Clear
5:00 AM 66.2 °F - 62.6 °F 88% 29.95 in - East 6.9 mph - N/A   Clear
6:00 AM 70 °F - 60 °F 63% 29.81 in 12 mi ENE 6.9 mph - -   Clear
6:00 AM 69.8 °F - 60.8 °F 73% 29.95 in - ENE 6.9 mph - N/A   Clear
7:00 AM 75.2 °F - 62.6 °F 65% 29.97 in - ENE 6.9 mph - N/A   Clear
8:00 AM 77.0 °F - 60.8 °F 57% 29.97 in - ESE 8.1 mph - N/A   Clear
9:00 AM 80.6 °F 81.5 °F 60.8 °F 51% 29.98 in - ESE 8.1 mph - N/A   Clear
10:00 AM 84.2 °F 84.4 °F 60.8 °F 45% 29.98 in 6.2 mi ESE 10.4 mph - N/A   Scattered Clouds
11:00 AM 86.0 °F 86.1 °F 60.8 °F 43% 29.97 in 6.2 mi ESE 8.1 mph - N/A   Scattered Clouds
12:00 PM 79 °F - 68 °F 60% 29.78 in 12 mi SSW 8.1 mph - -  
12:00 PM 82.4 °F 84.6 °F 66.2 °F 58% 29.96 in 6.2 mi SSW 8.1 mph - N/A   Scattered Clouds
1:00 PM 78.8 °F - 68.0 °F 69% 29.94 in 6.2 mi SW 13.8 mph - N/A Rain Heavy Rain Showers
2:00 PM 75.2 °F - 69.8 °F 83% 29.93 in 3.1 mi SSW 8.1 mph - N/A Rain Light Rain
3:00 PM 74 °F - 68 °F 75% 29.80 in 9 mi West 4.6 mph - -   Overcast
3:00 PM 73.4 °F - 68.0 °F 83% 29.93 in 6.2 mi West 4.6 mph - N/A   Mostly Cloudy
3:11 PM 71.6 °F - 68.0 °F 88% 29.93 in 3.1 mi WNW 5.8 mph - N/A Rain Light Rain
3:17 PM 71.6 °F - 68.0 °F 88% 29.94 in 1.9 mi WSW 9.2 mph - N/A Rain Heavy Rain
3:35 PM 69.8 °F - 68.0 °F 94% 29.93 in 1.9 mi SSW 8.1 mph - N/A Rain , Thunderstorm Light Thunderstorms and Rain
4:00 PM 68.0 °F - 68.0 °F 100% 29.94 in 3.1 mi WSW 8.1 mph - N/A   Overcast
5:00 PM 69.8 °F - 68.0 °F 94% 29.96 in 6.2 mi East 2.3 mph - N/A   Overcast
6:00 PM 69.8 °F - 66.2 °F 88% 29.98 in 6.2 mi SSE 2.3 mph - N/A   Drizzle
7:00 PM 69.8 °F - 68.0 °F 94% 29.99 in 6.2 mi East 3.5 mph - N/A   Overcast
8:00 PM 69.8 °F - 68.0 °F 94% 30.01 in 6.2 mi East 3.5 mph - N/A   Light Drizzle
9:00 PM 70 °F - 68 °F 91% 29.83 in 9 mi ENE 4.6 mph - -   Scattered Clouds
9:00 PM 69.8 °F - 68.0 °F 94% 30.00 in 6.2 mi ENE 4.6 mph - N/A   Mostly Cloudy
10:00 PM 69.8 °F - 68.0 °F 94% 30.01 in 6.2 mi Calm Calm - N/A Fog Mostly Cloudy
11:00 PM 68.0 °F - 68.0 °F 100% 30.00 in 6.2 mi SSE 3.5 mph - N/A Fog Mostly Cloudy